Location: Newark
(7.0858°N, 171.3717°E)
Time: 15:14:59
(UTC+00:00)

Courier 1B Rocket - Pass Details

Date: 04 December 2020
Orbit: 920 x 1202 km, 28.2° (Epoch: 20 January)

Event Time Altitude Azimuth Distance (km) Brightness Sun altitude
Rises 14:49:28 0° 271° (W) 3,865 - -52.0°
Reaches altitude 10° 14:52:34 10° 282° (WNW) 2,954 - -51.3°
Maximum altitude 14:58:44 29° 340° (NNW) 1,969 - -50.0°
Drops below altitude 10° 15:05:12 10° 37° (NE) 3,094 - -48.5°
Exits shadow 15:07:27 - 45° (NE) 3,742 8.2 -48.0°
Sets 15:08:33 0° 48° (NE) 4,077 8.4 -47.8°
